Weather History for KBCE - June, 2013

Change the Weather History Date:

Thursday, June 20, 2013

  Actual Average (KCDC) Record (KCDC)
Temperature  
Mean Temperature 54 °F 67 °F  
Max Temperature 78 °F 85 °F 97 °F (1981)
Min Temperature 32 °F 49 °F 35 °F (1973)
Degree Days  
Heating Degree Days 10 1  
Month to date heating degree days 68  
Since 1 June heating degree days 68  
Since 1 July heating degree days 6247  
Cooling Degree Days 0 4  
Month to date cooling degree days 45  
Year to date cooling degree days 53  
Since 1 June cooling degree days 45  
Growing Degree Days 4 (Base 50)    
Moisture  
Dew Point 8 °F    
Average Humidity 18    
Maximum Humidity 37    
Minimum Humidity 6    
Precipitation  
Precipitation 0.00 in 0.01 in 0.26 in (1967)
Month to date precipitation 0.40  
Year to date precipitation 5.44  
Sea Level Pressure  
Sea Level Pressure 29.79 in    
Wind  
Wind Speed 8 mph (WSW)    
Max Wind Speed 23 mph    
Max Gust Speed 34 mph    
Visibility 10 miles    
Events      
T = Trace of Precipitation, MM = Missing Value Source: NWS Daily Summary

Daily Weather History Graph

Daily Weather History Graph

Search for Another Location

Airport or City:

Trip Planner

Search our weather history database for the weather conditions in past years. The results will help you decide how hot, cold, wet, or windy it might be!

Date:

Astronomy

Jun. 20, 2013 Rise Set
Actual Time 6:06 AM MDT 8:53 PM MDT
Civil Twilight 5:35 AM MDT 9:24 PM MDT
Nautical Twilight 4:56 AM MDT 10:04 PM MDT
Astronomical Twilight 4:12 AM MDT 10:48 PM MDT
Moon 6:01 PM MDT (6/20) 3:33 AM MDT (6/20)
Length of Visible Light 15h 49m
Length of Day
14h 46m
Waxing Gibbous, 89% of the Moon is Illuminated
Jun 20
Waxing Gibbous
Jun 23
Full
Jun 29
Last Quarter
Jul 8
New
Jul 15
First Quarter

Hourly Weather History & Observations

Time (MDT) Temp. Windchill Dew Point Humidity Pressure Visibility Wind Dir Wind Speed Gust Speed Precip Events Conditions
12:53 AM 37.0 °F 32.4 °F 10.0 °F 33% 29.77 in 10.0 mi WSW 5.8 mph - N/A   Clear
1:53 AM 39.0 °F - 5.0 °F 24% 29.76 in 10.0 mi Calm Calm - N/A   Clear
2:53 AM 35.1 °F 32.2 °F 3.0 °F 26% 29.78 in 10.0 mi NW 3.5 mph - N/A   Clear
3:53 AM 37.0 °F 30.4 °F 6.1 °F 28% 29.77 in 10.0 mi West 9.2 mph - N/A   Clear
4:53 AM 32.0 °F 24.2 °F 8.1 °F 37% 29.79 in 10.0 mi West 9.2 mph - N/A   Clear
5:53 AM 33.1 °F 24.9 °F 9.0 °F 37% 29.80 in 10.0 mi West 10.4 mph - N/A   Clear
6:53 AM 35.1 °F - 9.0 °F 34% 29.81 in 10.0 mi Calm Calm - N/A   Clear
7:53 AM 46.9 °F - 6.1 °F 19% 29.79 in 10.0 mi North 4.6 mph - N/A   Clear
8:53 AM 54.0 °F - 14.0 °F 21% 29.80 in 10.0 mi NE 9.2 mph - N/A   Clear
9:53 AM 63.0 °F - 12.0 °F 14% 29.79 in 10.0 mi Variable 3.5 mph - N/A   Clear
10:53 AM 66.9 °F - 7.0 °F 10% 29.79 in 10.0 mi West 10.4 mph 23.0 mph N/A   Clear
11:53 AM 71.1 °F - 8.1 °F 9% 29.82 in 10.0 mi WSW 16.1 mph 21.9 mph N/A   Clear
12:53 PM 73.0 °F - 9.0 °F 8% 29.81 in 10.0 mi SSW 18.4 mph 24.2 mph N/A   Clear
1:53 PM 73.0 °F - 12.9 °F 10% 29.79 in 10.0 mi WSW 11.5 mph 24.2 mph N/A   Clear
2:53 PM 75.0 °F - 10.9 °F 9% 29.79 in 10.0 mi SW 16.1 mph 32.2 mph N/A   Clear
3:53 PM 77.0 °F - 10.9 °F 8% 29.75 in 10.0 mi WSW 18.4 mph 26.5 mph N/A   Clear
4:53 PM 75.9 °F - 6.1 °F 7% 29.78 in 10.0 mi SW 23.0 mph 34.5 mph N/A   Clear
5:53 PM 75.9 °F - 5.0 °F 6% 29.77 in 10.0 mi WSW 12.7 mph 18.4 mph N/A   Clear
6:53 PM 73.0 °F - 5.0 °F 7% 29.78 in 10.0 mi WSW 18.4 mph 26.5 mph N/A   Clear
7:53 PM 70.0 °F - 5.0 °F 8% 29.75 in 10.0 mi WSW 11.5 mph - N/A   Clear
8:53 PM 61.0 °F - 6.1 °F 11% 29.78 in 10.0 mi West 6.9 mph - N/A   Clear
9:53 PM 52.0 °F - 7.0 °F 16% 29.79 in 10.0 mi Variable 3.5 mph - N/A   Clear
10:53 PM 41.0 °F 36.4 °F 8.1 °F 26% 29.84 in 10.0 mi SW 6.9 mph - N/A   Clear
11:53 PM 37.0 °F 31.6 °F 8.1 °F 30% 29.83 in 10.0 mi WSW 6.9 mph - N/A   Clear